Weather observations for the past three days for
Cape Lisburne, Cape Lisburne LRRS Airport
Imperial (Metric)
Date Time (akdt) Wind (mph) Vis. (mi.) Weather Sky Cond. Temperature (ºF) Relative Humidity Wind Chill (°F) Heat Index (°F) Pressure Precipitation (in)
Air Dwpt 6 hour altimeter (in) sea level (mb) 1 hr 3 hr 6 hr
Max. Min.
08 02:55 Calm 10.00 Overcast OVC014 30.2 28.4 93% 30.18 1021.8
08 01:55 Calm 10.00 Overcast BKN006 OVC019 30.2 28.4 93% 30.18 1022.1
08 00:55 Calm 10.00 Overcast OVC009 29.3 28 95% 30.19 1022.3
07 23:55 Calm 10.00 Overcast OVC010 30.2 28.4 93% 30.19 1022.5
07 22:55 NE 5 10.00 Overcast OVC008 30.2 28.4 93% 26 30.2 1022.7
07 21:55 NE 8 10.00 Overcast OVC008 29.7 28 29.5 26.6 94% 23 30.2 1022.6
07 20:55 Calm 10.00 Overcast OVC008 30.2 28.4 93% 30.2 1022.6
07 19:55 E 5 10.00 Overcast OVC008 28.4 26.6 93% 24 30.21 1023.0
07 18:55 E 5 10.00 Overcast OVC007 28.8 27.5 95% 24 30.21 1023.1
07 17:55 E 6 10.00 Overcast OVC008 28.4 26.6 93% 23 30.22 1023.3
07 16:55 E 5 10.00 Overcast BKN009 OVC035 28.4 26.6 93% 24 30.22 1023.3
07 15:55 E 6 10.00 Overcast SCT008 OVC036 27 25.7 27.3 22.8 95% 21 30.23 1023.5
07 14:55 E 7 10.00 Overcast SCT008 OVC036 26.6 24.8 93% 20 30.23 1023.6
07 13:55 E 2 10.00 Overcast OVC010 24.8 23 93% 30.23 1023.9
07 12:55 Calm 10.00 Overcast OVC011 24.3 22.3 92% 30.23 1023.7
07 11:55 Calm 10.00 Overcast BKN009 OVC035 23 21.2 93% 30.23 1023.7
07 10:55 Calm 10.00 Overcast OVC008 23 21.2 93% 30.23 1023.7
07 09:55 N 1 10.00 Overcast OVC009 22.8 21 23.2 21.9 93% 30.23 1023.8
07 08:55 Calm 10.00 Overcast BKN010 OVC043 23 21.2 93% 30.23 1023.7
07 07:55 Calm 10.00 Overcast OVC007 23 21.2 93% 30.23 1023.5
07 06:55 N 3 10.00 Overcast OVC006 22.5 21.6 96% 30.23 1023.5
07 05:55 Calm 10.00 Overcast OVC006 23 21.2 93% 30.22 1023.3
07 04:55 N 6 10.00 Overcast OVC006 23 21.2 93% 17 30.22 1023.4
07 03:55 Vrbl 7 10.00 Overcast OVC006 22.3 21 25.3 22.3 95% 15 30.21 1023.1
07 02:55 N 8 10.00 Overcast OVC007 23 21.2 93% 15 30.21 1023.0
07 01:55 Vrbl 5 10.00 Overcast OVC006 23 21.2 93% 18 30.2 1022.7
07 00:55 N 12 10.00 Overcast OVC004 23.2 22.5 97% 13 30.19 1022.4
06 23:55 N 8 10.00 Overcast OVC005 24.8 23 93% 17 30.18 1022.1
06 22:55 N 13 10.00 Overcast OVC006 24.8 23 93% 14 30.18 1022.0
06 21:55 N 6 10.00 Overcast OVC006 25.2 24.3 26.2 23.7 96% 19 30.17 1021.6
06 20:55 NW 13 10.00 Overcast OVC006 26.6 24.8 93% 16 30.16 1021.4
06 19:55 NW 8 10.00 Overcast OVC006 26.6 24.8 93% 19 30.16 1021.3
06 18:55 NW 7 10.00 Overcast OVC006 25.7 24.1 94% 19 30.16 1021.1
06 17:55 NW 9 10.00 Overcast OVC006 24.8 24.8 100% 16 30.14 1020.6
06 16:55 N 8 10.00 Overcast OVC006 24.8 23 93% 17 30.13 1020.3
06 15:55 NW 9 10.00 Overcast OVC006 24.8 23.5 24.1 20.8 95% 16 30.12 1020.0
06 14:55 NW 12 10.00 Overcast OVC008 24.8 23 93% 15 30.12 1019.8
06 13:55 NW 7 10.00 Overcast OVC012 23 21.2 93% 16 30.11 1019.5
06 12:55 NW 9 10.00 Overcast OVC009 22.5 20.3 91% 13 30.1 1019.2
06 11:55 W 8 10.00 Overcast OVC009 21.2 19.4 93% 12 30.09 1018.9
06 10:55 NW 12 9.00 Overcast OVC006 21.2 19.4 93% 10 30.08 1018.4
06 09:55 N 9 10.00 Overcast OVC013 23.2 20.5 23.5 22.6 89% 14 30.06 1017.9
06 07:55 NW 5 10.00 Light Showers Snow OVC009 23 21.2 93% 18 30.03 1016.8
06 06:55 NW 7 10.00 Light Snow OVC009 23.4 21.9 94% 16 30.02 1016.4
06 05:55 NW 6 10.00 Light Snow OVC008 23 21.2 93% 17 30.01 1016.1
06 04:55 NW 7 10.00 Light Snow FEW016 OVC029 23 21.2 93% 16 30 1015.8
06 03:55 NW 6 10.00 Light Snow BKN010 OVC028 23.2 21.4 23.7 23 93% 17 30 1015.7
06 02:55 W 6 10.00 Light Snow OVC010 23 21.2 93% 17 29.99 1015.4
06 01:55 W 12 10.00 Light Snow OVC012 23 21.2 93% 13 29.98 1015.2
06 00:55 NW 10 10.00 Light Snow OVC011 23.5 21 90% 14 29.97 1015.0
05 23:55 W 8 10.00 Light Showers Snow OVC012 23 21.2 93% 15 29.97 1014.8
05 22:55 W 9 10.00 Overcast FEW013 OVC044 23 19.4 86% 14 29.97 1014.8
05 21:55 NW 9 10.00 Light Snow BKN012 OVC048 23.2 20.1 23.7 22.6 88% 14 29.96 1014.5
05 20:55 W 10 10.00 Light Snow BKN013 OVC049 23 19.4 86% 13 29.96 1014.5
05 19:55 NW 7 10.00 Light Showers Snow BKN014 OVC050 23 19.4 86% 16 29.95 1014.3
05 18:55 NW 7 10.00 Light Snow OVC014 23.5 19.8 85% 16 29.95 1014.2
05 17:55 NW 8 10.00 Light Showers Snow OVC012 23 19.4 86% 15 29.95 1014.1
05 16:55 NW 10 10.00 Light Showers Snow BKN013 OVC065 23 19.4 86% 13 29.95 1014.0
05 15:55 NW 10 10.00 Light Showers Snow OVC011 22.8 19.8 23.9 22.5 88% 13 29.94 1013.8
05 14:55 NW 10 9.00 Light Snow OVC011 23 19.4 86% 13 29.94 1013.9
05 13:55 NW 7 5.00 Light Snow OVC012 23 21.2 93% 16 29.94 1013.7
05 12:55 NW 9 4.00 Light Snow OVC013 23.2 20.3 89% 14 29.93 1013.6
05 11:55 NW 6 10.00 Light Showers Snow OVC012 23 19.4 86% 17 29.93 1013.5
05 10:55 Vrbl 7 10.00 Light Snow OVC012 23 19.4 86% 16 29.93 1013.5
05 09:55 NW 6 10.00 Light Snow OVC011 22.6 19.9 24.4 22.3 89% 16 29.94 1013.9
05 08:55 NW 6 10.00 Light Snow OVC010 23 21.2 93% 17 29.95 1014.0
05 07:55 NW 6 7.00 Light Showers Snow OVC012 23 19.4 86% 17 29.95 1014.1
05 06:55 W 8 10.00 Overcast OVC012 22.8 18.9 85% 14 29.94 1013.9
05 05:55 W 12 10.00 Light Snow OVC013 23 19.4 86% 13 29.94 1013.9
05 04:55 W 12 10.00 Overcast OVC011 24.8 21.2 86% 15 29.94 1013.9
05 03:55 W 9 10.00 Light Showers Snow OVC009 24.3 21.7 28.6 24.4 90% 15 29.95 1014.2
Date Time (akdt) Wind (mph) Vis. (mi.) Weather Sky Cond. Air Dwpt Max. Min. Relative Humidity Wind Chill (°F) Heat Index (°F) altimeter (in) sea level (mb) 1 hr 3 hr 6 hr
6 hour
Temperature (ºF) Pressure Precipitation (in)